Погода в Анденесе

Норвегия     69°18′51″N   16°07′05″E
темп.,
°C
ветер,
м/с
пор.,
м/с
влажн.,
%
обл.,
%
осадки,
мм/ч
давл.,
гПа
погр.,
м
12 мая, ср
ср1223:00+4всв7781100 0.1 1017672
02:00+4всв558247 0.1 1016587
05:00+4всв5590100 1.1 1015375
08:00+4в6690100 4.3 1013330
11:00+6юв6882100 0.2 1013266
14:00+6юв798975 0.3 1012137
17:00+6ююв4591100 0.0 101387
20:00+6юв1291100 0.1 101349
13 мая, чт
чт1323:00+7сз2289100 0.1 101444
02:00+6ссз2288100 0.2 101550
05:00+5ссв111097100 0.1 1015435
08:00+4ссв151597100 0.4 1016655
11:00+4ссв151691100 0.2 1017817
14:00+4ссв151685100 0.3 1019895
17:00+4св16178391 0.0 1020924
20:00+4св17187762 0.1 1020983
14 мая, пт
пт1423:00+4св17187322 0.0 1021910
02:00+4св17177083 0.0 1020900
05:00+4св16167217 0.0 1019833
08:00+4св15157337 0.0 1019782
11:00+4св13127428 0.0 1018687
14:00+4св121175100 0.0 1018639
17:00+5св111077100 0.0 1017458
20:00+5св111180100 0.0 1016414
15 мая, сб
сб1523:00+5св121180100 0.0 1016448
02:00+5св11118073 0.0 1015464
05:00+5св101079100 0.0 1014451
08:00+5св8875100 0.0 1014434
11:00+6св7775100 0.0 1014364
14:00+6св8878100 0.0 1013267
17:00+6св8980100 0.0 1012275
20:00+6св7882100 0.1 1012263
16 мая, вс
вс1623:00+6св6781100 0.1 1011197
02:00+6всв6780100 0.1 1010183
05:00+6всв6780100 0.0 1009200
08:00+6всв5680100 0.0 1008186
11:00+6всв678154 0.0 1008185
14:00+6св788366 0.0 1008139
17:00+6св7885100 0.0 1008114
20:00+7всв5683100 0.0 100872